Change the Weather History Date:

Saturday, May 31, 2014

  Actual Average Record
Temperature  
Mean Temperature 81 °F 80 °F  
Max Temperature 88 °F 89 °F 98 °F (1977)
Min Temperature 73 °F 70 °F 50 °F (1984)
Cooling Degree Days 16 15  
Month to date cooling degree days 289 360  
Year to date cooling degree days 469 614  
Growing Degree Days 30 (Base 50)    
Moisture  
Dew Point 72 °F    
Average Humidity 80    
Maximum Humidity 100    
Minimum Humidity 59    
Precipitation  
Precipitation 0.18 in 0.18 in 4.99 in (1999)
Month to date precipitation 11.03 4.78  
Year to date precipitation 23.04 22.62  
Sea Level Pressure  
Sea Level Pressure 29.91 in    
Wind  
Wind Speed 3 mph (East)    
Max Wind Speed 13 mph    
Max Gust Speed 20 mph    
Visibility 10 miles    
Events Rain , Thunderstorm    
T = Trace of Precipitation, MM = Missing Value Source: NWS Daily Summary

Daily Weather History Graph

Daily Weather History Graph

Search for Another Location

Airport or City:

Trip Planner

Search our weather history database for the weather conditions in past years. The results will help you decide how hot, cold, wet, or windy it might be!

Date:

Astronomy

May. 31, 2014 Rise Set
Actual Time 6:07 AM CDT 8:04 PM CDT
Civil Twilight 5:40 AM CDT 8:31 PM CDT
Nautical Twilight 5:07 AM CDT 9:04 PM CDT
Astronomical Twilight 4:32 AM CDT 9:39 PM CDT
Moon 8:39 AM CDT (5/31) 10:29 PM CDT (5/31)
Length of Visible Light 14h 51m
Length of Day
13h 57m
Waxing Crescent, 8% of the Moon is Illuminated
May 31
Waxing Crescent
Jun 5
First Quarter
Jun 12
Full
Jun 19
Last Quarter
Jun 27
New

Hourly Weather History & Observations

Time (CDT) Temp. Heat Index Dew Point Humidity Pressure Visibility Wind Dir Wind Speed Gust Speed Precip Events Conditions
12:53 AM 75.0 °F - 73.0 °F 94% 29.90 in 10.0 mi Calm Calm - N/A   Clear
1:53 AM 73.9 °F - 73.0 °F 97% 29.91 in 10.0 mi Calm Calm - N/A   Partly Cloudy
2:41 AM 73.9 °F - 73.0 °F 97% 29.90 in 10.0 mi Calm Calm - N/A   Mostly Cloudy
2:53 AM 73.9 °F - 73.0 °F 97% 29.90 in 10.0 mi East 4.6 mph - N/A   Overcast
3:37 AM 73.9 °F - 72.0 °F 93% 29.89 in 10.0 mi ENE 3.5 mph - N/A   Mostly Cloudy
3:46 AM 73.9 °F - 72.0 °F 93% 29.89 in 10.0 mi East 4.6 mph - N/A   Scattered Clouds
3:53 AM 73.4 °F - 71.6 °F 94% 29.90 in 10.0 mi East 4.6 mph - N/A   Scattered Clouds
4:00 AM 73.9 °F - 72.0 °F 93% 29.90 in 10.0 mi ENE 4.6 mph - N/A   Mostly Cloudy
4:35 AM 73.0 °F - 72.0 °F 96% 29.89 in 10.0 mi Calm Calm - N/A   Mostly Cloudy
4:53 AM 73.0 °F - 72.0 °F 96% 29.90 in 10.0 mi Calm Calm - N/A   Mostly Cloudy
5:45 AM 73.9 °F - 72.0 °F 93% 29.90 in 10.0 mi Calm Calm - N/A   Overcast
5:53 AM 73.0 °F - 72.0 °F 96% 29.90 in 10.0 mi Calm Calm - N/A   Overcast
6:28 AM 73.0 °F - 72.0 °F 96% 29.92 in 10.0 mi Variable 3.5 mph - N/A Thunderstorm Overcast
6:53 AM 73.9 °F - 72.0 °F 93% 29.92 in 10.0 mi East 4.6 mph - N/A Thunderstorm Overcast
7:10 AM 73.9 °F - 72.0 °F 93% 29.92 in 10.0 mi East 5.8 mph - N/A   Overcast
7:29 AM 75.0 °F - 73.0 °F 94% 29.93 in 10.0 mi Variable 3.5 mph - N/A Thunderstorm Overcast
7:50 AM 75.2 °F - 71.6 °F 89% 29.92 in 10.0 mi East 4.6 mph - N/A   Mostly Cloudy
7:53 AM 75.9 °F - 73.0 °F 91% 29.92 in 10.0 mi ESE 5.8 mph - N/A   Mostly Cloudy
8:42 AM 77.0 °F - 73.0 °F 88% 29.93 in 10.0 mi East 5.8 mph - N/A   Mostly Cloudy
8:53 AM 77.0 °F - 72.0 °F 84% 29.93 in 10.0 mi ENE 4.6 mph - N/A   Mostly Cloudy
9:39 AM 78.1 °F - 72.0 °F 81% 29.93 in 10.0 mi ESE 3.5 mph - N/A   Mostly Cloudy
9:53 AM 78.8 °F - 71.6 °F 78% 29.93 in 10.0 mi Variable 3.5 mph - N/A   Scattered Clouds
10:25 AM 81.0 °F 85.2 °F 72.0 °F 74% 29.94 in 10.0 mi Variable 4.6 mph - N/A   Mostly Cloudy
10:53 AM 82.0 °F 86.3 °F 71.1 °F 69% 29.94 in 10.0 mi Variable 4.6 mph - N/A   Scattered Clouds
11:53 AM 84.0 °F 89.0 °F 71.1 °F 65% 29.92 in 10.0 mi Variable 5.8 mph - N/A   Partly Cloudy
12:53 PM 84.9 °F 90.1 °F 71.1 °F 63% 29.91 in 10.0 mi ESE 4.6 mph - N/A   Mostly Cloudy
1:53 PM 87.1 °F 92.8 °F 71.1 °F 59% 29.89 in 10.0 mi ENE 8.1 mph - N/A   Partly Cloudy
2:53 PM 84.9 °F 90.1 °F 71.1 °F 63% 29.88 in 10.0 mi Variable 4.6 mph - N/A   Scattered Clouds
3:53 PM 82.0 °F 86.7 °F 72.0 °F 71% 29.88 in 10.0 mi South 4.6 mph - N/A   Scattered Clouds
4:53 PM 82.0 °F 86.7 °F 72.0 °F 71% 29.87 in 10.0 mi East 8.1 mph - N/A   Mostly Cloudy
5:42 PM 75.0 °F - 72.0 °F 90% 29.88 in 2.5 mi Calm Calm - 0.11 in Rain Heavy Rain
5:51 PM 75.2 °F - 73.4 °F 94% 29.88 in 10.0 mi Calm Calm - 0.11 in Rain Light Rain
5:53 PM 75.2 °F - 73.4 °F 94% 29.88 in 10.0 mi Calm Calm - N/A   Overcast
6:53 PM 77.0 °F - 73.9 °F 90% 29.88 in 10.0 mi Calm Calm - N/A   Clear
7:53 PM 75.9 °F - 73.0 °F 91% 29.88 in 10.0 mi East 4.6 mph - N/A   Clear
8:21 PM 77.0 °F - 72.0 °F 84% 29.90 in 10.0 mi East 3.5 mph - N/A   Mostly Cloudy
8:53 PM 75.0 °F - 72.0 °F 90% 29.91 in 10.0 mi SSE 3.5 mph - 0.07 in Rain Light Rain
9:53 PM 73.9 °F - 73.9 °F 100% 29.93 in 10.0 mi Calm Calm - 0.00 in   Clear
10:53 PM 73.9 °F - 72.0 °F 93% 29.95 in 10.0 mi Calm Calm - N/A   Clear
11:53 PM 73.0 °F - 72.0 °F 96% 29.95 in 10.0 mi Calm Calm - N/A   Partly Cloudy